Total_Precipitation_Accumulation
0.32 0.42 0.91 1.11 1.17 1.09 1.07 1.01 1.01 0.99 0.98 1.06 1.14 1.18 1.11 1.04 1.02 1.01 1.05 1.09 1.16 1.36 1.48 1.46 1.34 1.25 1.16 1.08 0.90 0.68 0.58 0.51 0.40 0.35 0.34 0.45 0.54 0.56 0.48 0.44 0.46 0.56 0.80
0.31 0.50 0.94 1.10 1.17 1.18 1.14 0.99 0.86 0.84 0.87 0.98 1.10 1.15 1.19 1.17 1.12 1.05 1.04 1.18 1.29 1.44 1.47 1.44 1.23 1.05 0.98 0.85 0.69 0.52 0.44 0.34 0.26 0.20 0.15 0.22 0.39 0.55 0.50 0.44 0.47 0.65 0.77
0.33 0.56 0.87 1.10 1.14 1.20 1.10 0.92 0.80 0.79 0.85 0.94 1.03 1.08 1.19 1.22 1.12 1.10 1.10 1.21 1.31 1.48 1.42 1.29 1.11 0.92 0.79 0.63 0.52 0.43 0.35 0.30 0.24 0.18 0.18 0.26 0.41 0.63 0.61 0.55 0.62 0.74 0.79
0.41 0.65 0.85 1.12 1.15 1.18 1.12 0.95 0.86 0.82 0.90 0.99 1.03 1.09 1.19 1.21 1.17 1.21 1.17 1.17 1.27 1.39 1.29 1.12 1.04 0.82 0.65 0.55 0.50 0.44 0.38 0.33 0.25 0.21 0.26 0.32 0.43 0.78 0.81 0.78 0.83 0.85 0.82
0.60 0.78 1.03 1.22 1.22 1.23 1.16 1.06 1.01 0.97 1.01 1.07 1.12 1.20 1.24 1.29 1.28 1.31 1.21 1.11 1.11 1.11 1.04 0.93 0.83 0.71 0.57 0.51 0.49 0.46 0.38 0.32 0.24 0.22 0.26 0.34 0.50 0.97 0.96 0.87 0.83 0.76 0.73
0.80 0.96 1.25 1.47 1.42 1.36 1.28 1.19 1.19 1.15 1.15 1.14 1.17 1.28 1.32 1.39 1.38 1.30 1.13 0.99 0.90 0.89 0.95 0.90 0.76 0.66 0.56 0.51 0.47 0.43 0.35 0.26 0.22 0.25 0.29 0.37 0.61 1.07 0.98 0.87 0.80 0.76 0.74
0.93 1.12 1.44 1.68 1.68 1.54 1.45 1.39 1.37 1.34 1.35 1.32 1.27 1.34 1.41 1.43 1.40 1.28 1.04 0.86 0.74 0.78 0.89 0.91 0.86 0.72 0.63 0.54 0.48 0.42 0.31 0.22 0.22 0.26 0.32 0.44 0.73 1.09 1.01 0.94 0.87 0.84 0.85
1.08 1.27 1.59 1.85 1.78 1.68 1.68 1.66 1.63 1.60 1.55 1.49 1.46 1.55 1.55 1.49 1.37 1.21 1.04 0.88 0.76 0.75 0.84 0.86 0.89 0.80 0.66 0.59 0.51 0.43 0.27 0.20 0.21 0.24 0.32 0.48 0.75 1.03 1.04 0.93 0.91 0.88 0.86
1.38 1.57 1.79 1.90 1.80 1.71 1.68 1.72 1.76 1.79 1.80 1.70 1.59 1.60 1.56 1.48 1.34 1.18 0.97 0.92 0.87 0.83 0.84 0.86 0.79 0.81 0.72 0.61 0.52 0.41 0.27 0.19 0.20 0.23 0.30 0.51 0.80 1.05 1.10 1.01 0.93 0.93 0.89
1.88 1.95 2.06 2.16 2.05 1.86 1.70 1.77 1.81 1.82 1.78 1.77 1.64 1.41 1.33 1.27 1.20 1.15 0.89 0.86 0.87 0.86 0.79 0.80 0.81 0.80 0.70 0.57 0.49 0.42 0.31 0.26 0.25 0.24 0.34 0.51 0.82 1.07 1.08 1.06 0.96 0.91 0.92
2.39 2.42 2.37 2.42 2.37 2.28 2.08 1.95 1.97 1.85 1.75 1.73 1.62 1.36 1.25 1.33 1.22 1.00 0.74 0.71 0.75 0.78 0.78 0.77 0.75 0.74 0.59 0.50 0.45 0.42 0.41 0.35 0.31 0.32 0.36 0.53 0.87 1.05 1.05 1.05 0.98 0.98 0.93
2.58 2.64 2.61 2.62 2.60 2.59 2.30 2.14 2.16 1.99 1.79 1.65 1.50 1.44 1.33 1.31 1.29 1.04 0.85 0.73 0.76 0.74 0.76 0.84 0.83 0.70 0.55 0.46 0.42 0.42 0.45 0.46 0.45 0.39 0.37 0.54 0.87 1.04 1.10 1.08 0.95 0.91 0.94
2.90 2.90 2.84 2.80 2.83 2.83 2.67 2.30 2.19 2.03 1.97 1.85 1.60 1.53 1.47 1.46 1.41 1.24 1.10 0.97 0.93 0.80 0.78 0.83 0.86 0.68 0.55 0.50 0.45 0.39 0.40 0.45 0.47 0.44 0.39 0.49 0.78 1.04 1.12 1.10 0.97 0.89 0.91
2.96 3.09 3.00 2.94 2.91 2.94 2.88 2.60 2.31 2.11 1.96 1.86 1.68 1.58 1.60 1.56 1.44 1.29 1.14 1.06 0.99 0.87 0.83 0.81 0.75 0.65 0.55 0.51 0.47 0.43 0.43 0.45 0.44 0.46 0.42 0.42 0.64 0.92 1.09 1.13 1.05 0.99 0.99
2.82 3.14 3.20 3.13 3.02 2.90 2.92 2.81 2.50 2.22 1.95 1.88 1.88 1.74 1.58 1.51 1.40 1.34 1.20 1.17 1.10 0.96 0.91 0.86 0.79 0.74 0.67 0.59 0.51 0.46 0.45 0.45 0.43 0.46 0.43 0.38 0.45 0.70 1.01 1.17 1.18 1.22 1.28
2.68 2.98 3.22 3.37 3.30 3.09 2.86 2.74 2.60 2.40 2.23 2.16 2.04 1.90 1.80 1.67 1.56 1.42 1.29 1.22 1.16 1.03 0.93 0.92 0.86 0.84 0.78 0.72 0.63 0.54 0.48 0.46 0.43 0.44 0.45 0.42 0.42 0.52 0.76 1.01 1.16 1.33 1.51
2.79 2.94 3.16 3.42 3.60 3.47 3.19 2.97 2.81 2.61 2.45 2.35 2.25 2.22 2.12 1.93 1.77 1.67 1.47 1.31 1.23 1.20 1.17 1.13 1.08 0.96 0.86 0.78 0.73 0.67 0.59 0.54 0.49 0.44 0.45 0.44 0.42 0.42 0.54 0.80 1.04 1.25 1.48
3.13 3.16 3.33 3.38 3.60 3.69 3.58 3.30 3.01 2.82 2.64 2.43 2.25 2.26 2.25 2.11 1.97 1.89 1.74 1.54 1.45 1.43 1.38 1.29 1.18 1.11 0.95 0.83 0.76 0.72 0.66 0.61 0.54 0.49 0.45 0.42 0.39 0.36 0.42 0.59 0.79 1.02 1.28
3.25 3.40 3.60 3.59 3.50 3.66 3.82 3.71 3.32 3.05 2.84 2.66 2.43 2.29 2.34 2.32 2.18 2.01 1.82 1.71 1.71 1.67 1.53 1.43 1.28 1.27 1.21 1.01 0.86 0.79 0.74 0.68 0.61 0.56 0.51 0.46 0.42 0.37 0.37 0.45 0.57 0.66 0.89
3.30 3.41 3.55 3.69 3.75 3.84 4.00 4.11 3.86 3.48 3.16 2.95 2.76 2.54 2.45 2.54 2.56 2.37 2.02 1.86 1.88 1.88 1.79 1.65 1.55 1.44 1.37 1.35 1.19 0.94 0.81 0.76 0.72 0.64 0.58 0.53 0.48 0.42 0.39 0.40 0.46 0.51 0.59
3.17 3.28 3.30 3.42 3.62 3.78 3.91 3.93 3.80 3.47 3.30 3.15 2.93 2.79 2.72 2.62 2.65 2.73 2.45 2.18 2.11 2.06 2.02 1.97 1.93 1.84 1.64 1.59 1.58 1.31 1.01 0.86 0.80 0.71 0.66 0.64 0.58 0.53 0.50 0.48 0.49 0.52 0.56
2.72 3.07 3.13 3.21 3.31 3.40 3.46 3.67 3.79 3.68 3.41 3.30 3.23 3.03 2.84 2.76 2.72 2.78 2.83 2.61 2.31 2.23 2.22 2.22 2.13 1.98 1.90 1.86 1.80 1.72 1.51 1.29 0.99 0.81 0.75 0.71 0.66 0.65 0.63 0.61 0.60 0.61 0.62
2.43 2.85 3.00 3.12 3.26 3.23 3.40 3.86 4.10 4.13 3.82 3.53 3.32 3.24 3.07 2.89 2.84 2.78 2.75 2.79 2.65 2.46 2.34 2.35 2.42 2.39 2.23 2.12 2.02 2.07 1.82 1.50 1.20 0.98 0.88 0.84 0.82 0.80 0.76 0.75 0.75 0.74 0.74
2.15 2.49 2.72 3.01 3.27 3.39 3.47 3.69 3.77 3.61 3.43 3.13 3.04 3.05 3.11 3.10 2.92 2.84 2.83 2.82 2.79 2.69 2.51 2.46 2.53 2.59 2.61 2.50 2.33 2.15 1.92 1.61 1.48 1.24 1.01 0.99 1.03 1.02 0.98 0.92 0.89 0.86 0.84
1.96 2.25 2.44 2.62 2.91 3.19 3.34 3.49 3.65 3.49 3.23 3.13 3.13 3.12 3.09 3.13 3.06 2.95 2.88 2.87 2.87 2.80 2.72 2.66 2.64 2.65 2.66 2.63 2.56 2.37 2.20 1.87 1.60 1.50 1.28 1.13 1.18 1.15 1.14 1.09 1.03 0.98 0.95
1.74 2.08 2.25 2.40 2.57 2.86 3.08 3.26 3.47 3.38 3.13 2.89 2.89 2.96 2.92 2.92 2.88 2.83 2.86 2.81 2.77 2.75 2.66 2.62 2.63 2.62 2.63 2.56 2.46 2.32 2.24 2.08 1.84 1.74 1.57 1.34 1.34 1.32 1.32 1.28 1.20 1.12 1.07